Location: Milton Keynes
(52.0316°N, 0.7531°W)
Time: 21:21:31
(UTC+00:00)

Envisat - Pass Details

Date: 31 January 2019
Orbit: 764 x 766 km, 98.2° (Epoch: 15 February)

Event Time Altitude Azimuth Distance (km) Brightness Sun altitude
Rises 06:34:55 0° 24° (NNE) 3,245 6.4 -10.9°
Reaches altitude 10° 06:37:45 10° 39° (NE) 2,313 5.8 -10.5°
Maximum altitude 06:41:40 22° 90° (E) 1,632 5.8 -9.9°
Drops below altitude 10° 06:45:34 10° 140° (SE) 2,299 6.4 -9.3°
Sets 06:48:21 0° 156° (SSE) 3,220 6.9 -8.9°
